Regional Weather Roundup
Issued by NWS

Home | Current Version | Previous Version | Graphics & Text | Print | Product List | Glossary On
Versions: 1 2 3 4 5 6 7 8 9 10 11 12 13 14 15 16 17 18 19 20 21 22 23 24 25 26 27 28 29 30 31 32 33 34 35 36 37 38 39 40 41 42 43 44 45 46 47 48 49 50
000
ASUS43 KBIS 230010
RWRND

NORTH DAKOTA REGIONAL WEATHER ROUNDUP
NATIONAL WEATHER SERVICE BISMARCK ND
700 PM CDT FRI MAY 22 2015

NOTE: "FAIR" INDICATES FEW OR NO CLOUDS BELOW 12,000 FEET WITH NO
SIGNIFICANT WEATHER AND/OR OBSTRUCTIONS TO VISIBILITY.


NDZ001>003-009>011-017-230100-
NORTHWEST NORTH DAKOTA

CITY           SKY/WX    TMP DP  RH WIND       PRES   REMARKS
WILLISTON      MOSUNNY   75  33  21 S14G21    30.03S
6HR MIN TEMP:  72; 6HR MAX TEMP:  78;

MINOT          SUNNY     75  32  20 S10G21    30.06F
MINOT AFB      MOSUNNY   78  34  20 S10       30.05F
$$

NDZ018>021-031>035-040>046-230100-
SOUTHWEST NORTH DAKOTA

CITY           SKY/WX    TMP DP  RH WIND       PRES   REMARKS
BISMARCK       MOSUNNY   73  36  25 SE18      30.07F
6HR MIN TEMP:  72; 6HR MAX TEMP:  77;

DICKINSON      SUNNY     69  33  26 S24G30    30.04S
GARRISON         N/A     72  36  26 S9        30.07F
6HR MIN TEMP:  72; 6HR MAX TEMP:  76;

HETTINGER ARPT PTSUNNY   66  33  29 SE21G30   30.06S
$$

NDZ004>008-012>016-024-026-027-054-230100-
NORTHEAST NORTH DAKOTA

CITY           SKY/WX    TMP DP  RH WIND       PRES   REMARKS
GRAND FORKS    MOSUNNY   76  39  26 S7        30.10F
GRND FRKS AFB  SUNNY     76  37  24 S7        30.11F
DEVILS LAKE    SUNNY     73  34  23 S13       30.11S
$$

NDZ022-023-025-028>030-036>039-047>053-230100-
SOUTHEAST NORTH DAKOTA

CITY           SKY/WX    TMP DP  RH WIND       PRES   REMARKS
FARGO          SUNNY     74  42  31 S5G17     30.12F
6HR MIN TEMP:  70; 6HR MAX TEMP:  75;

JAMESTOWN      SUNNY     71  37  28 SE8       30.10
$$



USA.gov is the U.S. government's official web portal to all federal, state and local government web resources and services.